Location: Grandview
(34.8900°N, 117.1058°W)
Time: 16:40:20
(UTC-08:00)

Vanguard 1 Rocket - All Passes

Search period start: 11 December 2017 00:00
Search period end: 21 December 2017 00:00
Orbit: 656 x 4222 km, 34.3° (Epoch: 09 December)

Date Brightness Start Highest point End Pass type
(mag) Time Alt. Az. Time Alt. Az. Time Alt. Az.
11 Dec - 01:15:05 10° W 01:35:09 31° SW 01:53:35 10° S visible
11 Dec - 14:18:25 10° SSE 14:23:25 18° SE 14:30:26 10° E daylight
11 Dec - 16:38:36 10° SW 16:47:49 64° SSE 17:06:12 10° ENE visible
11 Dec - 19:03:15 10° W 19:16:54 88° S 19:41:49 10° E visible
11 Dec - 21:30:04 10° W 21:49:15 76° SSW 22:15:41 10° ESE visible
11 Dec - 23:59:42 10° WNW 00:21:18 44° SW 00:43:22 10° SSE visible
12 Dec - 02:41:11 10° WSW 02:50:19 13° SW 02:58:54 10° SSW visible
12 Dec - 15:28:57 10° SSW 15:36:25 43° SE 15:50:17 10° ENE daylight
12 Dec - 17:52:16 10° WSW 18:03:22 84° SSE 18:25:21 10° E visible
12 Dec - 20:18:05 10° W 20:34:21 84° SSW 21:00:43 10° ESE visible
12 Dec - 22:45:59 10° WNW 23:06:48 58° SSW 23:31:29 10° SE visible
13 Dec - 01:19:31 10° W 01:37:14 25° SW 01:54:08 10° S visible
13 Dec - 14:20:18 10° S 14:25:52 24° SE 14:34:28 10° E daylight
13 Dec - 16:41:47 10° WSW 16:50:47 72° SSE 17:09:04 10° E visible
13 Dec - 19:06:39 10° W 19:20:02 88° S 19:44:44 10° E visible
13 Dec - 21:33:20 10° WNW 21:51:59 69° SSW 22:18:07 10° SE visible
14 Dec - 00:03:21 10° W 00:23:31 37° SW 00:44:44 10° SSE visible
14 Dec - 15:31:52 10° SW 15:39:12 52° SSE 15:53:20 10° ENE daylight
14 Dec - 17:55:39 10° W 18:06:31 87° S 18:28:15 10° E visible
14 Dec - 20:21:24 10° W 20:37:19 79° SSW 21:03:24 10° ESE visible
14 Dec - 22:49:21 10° WNW 23:09:14 50° SW 23:33:19 10° SSE visible
15 Dec - 01:25:01 10° W 01:39:25 19° SW 01:53:36 10° SSW visible
15 Dec - 14:22:43 10° SSW 14:28:29 31° SE 14:38:03 10° E daylight
15 Dec - 16:45:05 10° WSW 16:53:54 79° SSE 17:11:58 10° E visible
15 Dec - 19:10:02 10° W 19:23:10 86° S 19:47:34 10° ESE visible
15 Dec - 21:36:38 10° WNW 21:54:41 62° SSW 22:20:18 10° SE visible
16 Dec - 00:07:24 10° W 00:25:47 30° SW 00:45:34 10° S visible
16 Dec - 13:15:17 10° SSE 13:18:20 14° SE 13:22:06 10° ESE daylight
16 Dec - 15:34:58 10° SW 15:42:10 62° SSE 15:56:20 10° ENE daylight
16 Dec - 17:59:04 10° W 18:09:44 88° S 18:31:10 10° E visible
16 Dec - 20:24:44 10° W 20:40:14 73° SSW 21:05:53 10° ESE visible
16 Dec - 22:52:55 10° W 23:11:41 42° SW 23:34:46 10° SSE visible
17 Dec - 01:32:57 10° WSW 01:41:46 13° SW 01:50:37 10° SSW visible
17 Dec - 14:25:27 10° SSW 14:31:15 39° SE 14:41:22 10° E daylight
17 Dec - 16:48:28 10° WSW 16:57:06 84° S 17:14:54 10° E visible
17 Dec - 19:13:24 10° W 19:26:16 82° SSW 19:50:18 10° ESE visible
17 Dec - 21:40:01 10° W 21:57:21 54° SSW 22:22:12 10° SE visible
18 Dec - 00:12:06 10° W 00:28:09 23° SW 00:45:39 10° S visible
18 Dec - 13:16:56 10° S 13:20:58 19° SE 13:26:33 10° E daylight
18 Dec - 15:38:14 10° WSW 15:45:15 71° SSE 15:59:18 10° E daylight
18 Dec - 18:02:29 10° W 18:12:57 87° S 18:34:04 10° E visible
18 Dec - 20:28:05 10° W 20:43:08 66° SSW 21:08:09 10° SE visible
18 Dec - 22:56:46 10° W 23:14:11 35° SW 23:35:46 10° SSE visible
19 Dec - 14:28:25 10° SW 14:34:10 49° SSE 14:44:33 10° E daylight
19 Dec - 16:51:53 10° W 17:00:22 87° S 17:17:51 10° E visible
19 Dec - 19:16:47 10° W 19:29:20 76° SSW 19:52:53 10° ESE visible
19 Dec - 21:43:33 10° W 22:00:02 46° SSW 22:23:44 10° SSE visible
20 Dec - 00:18:00 10° WSW 00:30:39 17° SW 00:44:26 10° SSW visible
20 Dec - 13:19:17 10° SSW 13:23:44 26° SE 13:30:20 10° E daylight
20 Dec - 15:41:34 10° WSW 15:48:28 79° SSE 16:02:18 10° E daylight
20 Dec - 18:05:55 10° W 18:16:11 84° S 18:36:53 10° ESE visible
20 Dec - 20:31:30 10° W 20:46:00 58° SSW 21:10:08 10° SE visible
